Temp
-12 -11 -12 -11 -11 -11 -11 -11 -11 -11 -11 -11 -11 -10 -10 -10 -10 -10 -10 -11 -10 -10 -10 -10 -10 -9 -9 -9 -9 -9 -9 -9 -9
-12 -12 -12 -11 -11 -11 -11 -11 -11 -11 -11 -11 -11 -11 -10 -11 -10 -10 -10 -10 -10 -10 -10 -10 -10 -10 -9 -9 -9 -9 -9 -9 -9
-12 -12 -12 -11 -11 -12 -11 -11 -11 -11 -11 -11 -11 -11 -11 -11 -10 -10 -10 -10 -10 -10 -10 -10 -10 -10 -10 -10 -10 -10 -9 -9 -9
-13 -13 -12 -12 -11 -11 -12 -11 -11 -11 -11 -11 -11 -11 -11 -11 -11 -10 -10 -10 -10 -10 -10 -10 -10 -10 -10 -10 -10 -10 -10 -9 -9
-13 -14 -13 -13 -12 -12 -12 -12 -12 -12 -12 -12 -12 -12 -11 -11 -11 -11 -11 -11 -11 -10 -10 -10 -10 -11 -10 -10 -10 -10 -10 -10 -10
-13 -14 -13 -13 -14 -13 -12 -13 -12 -12 -12 -12 -12 -12 -12 -12 -12 -11 -12 -12 -11 -11 -10 -10 -10 -10 -10 -10 -11 -10 -10 -10 -10
-13 -13 -13 -13 -14 -13 -14 -14 -13 -13 -13 -13 -13 -12 -12 -12 -12 -12 -12 -12 -12 -11 -11 -11 -11 -10 -11 -11 -11 -11 -11 -10 -10
-13 -13 -13 -13 -13 -13 -13 -13 -13 -13 -13 -13 -13 -12 -12 -12 -12 -12 -12 -12 -11 -11 -11 -11 -11 -12 -12 -11 -11 -11 -11 -11 -11
-13 -13 -13 -13 -13 -13 -13 -13 -13 -13 -12 -13 -13 -12 -12 -12 -12 -12 -12 -11 -11 -11 -11 -11 -11 -11 -11 -11 -11 -12 -12 -11 -11
-13 -13 -13 -13 -13 -13 -12 -13 -13 -13 -13 -13 -13 -13 -13 -12 -12 -12 -12 -12 -12 -11 -11 -11 -11 -11 -11 -11 -11 -11 -11 -11 -11
-12 -12 -12 -12 -12 -12 -12 -12 -13 -13 -13 -14 -14 -13 -13 -13 -13 -13 -12 -12 -12 -12 -12 -12 -12 -12 -12 -12 -12 -12 -12 -11 -11
-12 -12 -12 -12 -12 -12 -12 -12 -12 -12 -13 -13 -13 -13 -13 -13 -13 -12 -13 -13 -13 -13 -13 -13 -12 -12 -12 -12 -12 -12 -12 -12 -12
-12 -12 -12 -12 -12 -12 -12 -12 -12 -12 -12 -12 -12 -12 -12 -13 -13 -13 -13 -13 -13 -13 -13 -13 -13 -13 -12 -12 -13 -12 -12 -12 -12
-12 -12 -12 -12 -12 -12 -12 -12 -11 -12 -12 -12 -12 -12 -12 -12 -12 -12 -12 -12 -12 -12 -12 -13 -13 -13 -13 -13 -13 -13 -13 -13 -12
-12 -12 -12 -12 -12 -12 -12 -12 -12 -12 -12 -12 -12 -12 -12 -12 -12 -12 -12 -12 -12 -12 -12 -12 -12 -13 -13 -13 -12 -12 -13 -13 -12
-13 -12 -12 -12 -13 -13 -13 -12 -12 -12 -13 -12 -12 -12 -12 -13 -12 -12 -12 -12 -12 -12 -12 -12 -12 -12 -12 -12 -12 -12 -13 -13 -12
-13 -13 -13 -13 -13 -13 -13 -13 -13 -13 -13 -13 -13 -13 -12 -12 -13 -12 -12 -12 -13 -13 -13 -13 -12 -12 -12 -12 -12 -12 -12 -12 -12
-14 -14 -14 -14 -14 -13 -13 -13 -13 -13 -13 -13 -13 -13 -13 -13 -13 -13 -13 -13 -13 -13 -13 -13 -13 -13 -13 -13 -13 -13 -12 -12 -12
-14 -14 -14 -14 -14 -14 -14 -13 -13 -13 -13 -13 -13 -13 -13 -13 -13 -13 -13 -13 -13 -13 -13 -13 -13 -13 -12 -12 -13 -13 -13 -13 -13
-14 -14 -14 -14 -14 -14 -14 -13 -13 -13 -13 -13 -13 -13 -13 -13 -13 -13 -13 -12 -13 -13 -13 -13 -13 -13 -13 -13 -13 -12 -12 -13 -13
Height
5836 5837 5838 5838 5838 5842 5845 5848 5851 5854 5858 5860 5862 5864 5865 5868 5872 5874 5874 5874 5876 5877 5878 5880 5882 5882 5883 5884 5885 5886 5886 5886 5887
5835 5835 5836 5837 5836 5840 5842 5846 5849 5853 5855 5857 5859 5862 5864 5866 5869 5872 5871 5871 5873 5874 5876 5877 5879 5880 5881 5882 5883 5884 5885 5885 5885
5832 5832 5831 5833 5836 5839 5841 5844 5847 5850 5853 5855 5858 5860 5863 5864 5867 5869 5868 5870 5871 5873 5873 5874 5876 5877 5878 5879 5880 5881 5883 5883 5883
5832 5830 5831 5833 5835 5837 5840 5842 5845 5849 5851 5853 5856 5858 5860 5862 5864 5866 5866 5868 5869 5870 5870 5870 5873 5874 5875 5876 5877 5878 5879 5880 5881
5832 5834 5832 5832 5833 5835 5840 5842 5844 5846 5849 5851 5853 5855 5857 5860 5862 5864 5865 5865 5866 5868 5869 5869 5868 5870 5873 5874 5875 5876 5876 5877 5878
5834 5834 5835 5833 5833 5835 5838 5840 5842 5844 5846 5849 5851 5853 5855 5857 5860 5861 5862 5863 5864 5865 5865 5865 5867 5867 5869 5870 5872 5873 5874 5875 5875
5835 5835 5835 5836 5835 5837 5838 5839 5842 5843 5845 5847 5849 5851 5853 5855 5857 5858 5859 5860 5861 5862 5863 5862 5864 5864 5866 5867 5869 5870 5870 5871 5872
5833 5833 5834 5835 5835 5836 5838 5839 5840 5841 5842 5846 5847 5849 5850 5853 5855 5855 5857 5858 5859 5860 5860 5861 5861 5861 5862 5864 5865 5866 5867 5868 5869
5830 5831 5832 5833 5834 5836 5837 5837 5838 5838 5838 5841 5845 5847 5849 5851 5852 5853 5855 5855 5857 5858 5858 5858 5858 5859 5861 5862 5863 5864 5865 5866 5866
5828 5829 5829 5830 5831 5833 5835 5835 5836 5834 5834 5837 5841 5844 5846 5848 5849 5850 5852 5853 5853 5854 5854 5855 5856 5857 5858 5859 5860 5861 5862 5863 5863
5827 5827 5828 5829 5830 5831 5832 5833 5834 5835 5835 5836 5839 5842 5844 5845 5846 5848 5849 5850 5851 5851 5851 5852 5853 5854 5855 5856 5857 5857 5858 5859 5859
5824 5825 5826 5828 5829 5829 5830 5831 5833 5833 5834 5835 5837 5838 5840 5842 5843 5844 5845 5846 5847 5847 5848 5849 5850 5851 5852 5852 5853 5854 5855 5856 5856
5820 5821 5822 5823 5825 5826 5827 5829 5830 5831 5832 5833 5834 5834 5836 5837 5838 5839 5840 5842 5842 5843 5845 5846 5846 5847 5848 5849 5850 5852 5852 5852 5853
5815 5816 5817 5818 5819 5820 5822 5823 5825 5826 5828 5829 5830 5831 5831 5833 5833 5835 5835 5836 5837 5839 5839 5841 5841 5843 5844 5844 5845 5846 5847 5848 5849
5809 5810 5811 5812 5814 5815 5816 5817 5819 5820 5822 5824 5824 5825 5826 5828 5829 5829 5830 5831 5832 5833 5834 5835 5836 5837 5837 5838 5838 5840 5841 5842 5843
5803 5804 5805 5807 5808 5809 5809 5810 5813 5814 5815 5816 5817 5819 5820 5822 5822 5823 5825 5825 5826 5828 5828 5830 5830 5831 5831 5832 5832 5834 5833 5835 5836
5797 5798 5800 5801 5802 5804 5804 5805 5806 5808 5809 5810 5810 5812 5814 5815 5815 5816 5816 5817 5819 5820 5821 5822 5823 5825 5825 5825 5826 5826 5826 5827 5828
5791 5792 5793 5795 5796 5797 5798 5799 5800 5800 5801 5803 5804 5805 5805 5805 5807 5808 5809 5810 5811 5811 5812 5813 5813 5814 5815 5817 5817 5818 5819 5820 5821
5783 5784 5785 5786 5787 5788 5789 5790 5792 5792 5792 5794 5795 5796 5797 5798 5798 5799 5800 5801 5801 5802 5802 5803 5804 5804 5804 5805 5806 5807 5809 5810 5811
5774 5775 5776 5777 5778 5778 5779 5780 5781 5782 5783 5783 5784 5786 5787 5789 5789 5790 5788 5790 5791 5792 5791 5792 5792 5794 5795 5795 5796 5797 5798 5800 5801
Wind_Speed
7 11 11 11 16 16 21 20 21 21 21 22 21 21 19 24 19 21 19 19 20 17 14 16 13 14 13 12 11 11 10 10 10
6 7 12 11 14 16 20 21 21 21 19 19 19 16 13 15 16 16 16 24 19 16 15 14 15 16 13 11 12 11 12 12 11
2 10 7 9 15 17 18 22 19 19 22 20 20 17 16 15 15 15 13 20 16 18 19 19 19 19 17 15 14 14 13 13 12
6 6 5 12 17 11 11 19 27 25 23 21 20 17 16 17 18 17 16 17 16 16 21 24 24 22 20 18 16 15 15 14 13
5 6 4 5 13 11 15 16 20 21 20 20 18 18 17 16 18 18 18 17 15 15 19 17 25 27 23 21 20 19 18 16 15
6 6 4 5 12 9 14 10 20 20 17 16 14 14 14 15 18 19 18 18 17 18 15 14 19 22 27 24 21 18 17 16 15
4 5 7 3 4 7 6 7 4 6 14 14 14 14 13 13 13 15 19 16 16 16 15 11 17 13 14 27 23 20 18 17 16
7 5 5 7 5 8 8 8 9 10 15 18 15 15 14 13 13 12 13 15 16 16 15 14 13 12 11 9 23 25 20 16 18
9 8 6 6 5 6 8 9 9 7 15 24 20 16 13 12 11 12 13 14 15 15 16 15 15 15 14 13 14 15 17 19 20
10 9 8 7 6 5 4 4 5 6 6 25 24 18 16 14 12 12 14 14 15 16 15 14 16 18 17 17 17 19 21 20 19
13 12 11 9 8 8 8 7 6 6 4 15 22 21 21 20 18 18 18 17 16 15 15 14 15 16 15 17 19 18 19 19 19
16 15 14 14 13 12 12 11 11 10 10 13 18 15 17 18 18 19 18 18 18 17 17 17 16 17 17 16 19 19 19 19 19
20 19 19 18 17 17 17 17 16 15 14 14 16 18 19 20 21 22 21 21 20 20 20 20 20 20 20 21 20 19 20 20 21
23 23 23 22 21 22 22 22 21 20 20 20 20 21 20 21 22 22 22 22 23 25 25 26 26 26 26 26 25 24 24 24 24
26 26 26 26 26 26 26 25 24 24 25 25 24 25 26 26 26 26 26 25 25 24 24 25 26 28 28 29 29 30 30 30 30
28 28 28 27 27 26 27 27 26 26 26 26 28 28 28 29 30 30 31 30 30 30 29 29 29 29 29 28 27 28 29 30 31
29 29 28 28 27 27 27 27 27 27 26 26 27 28 29 29 31 32 32 33 33 33 34 35 34 34 34 33 34 33 31 30 31
32 32 32 31 31 31 31 31 31 32 31 31 32 32 32 33 32 32 33 33 33 34 35 36 37 37 37 37 38 38 37 37 36
34 34 34 34 34 34 33 34 33 34 35 34 35 36 35 36 37 37 36 37 37 37 37 38 39 39 40 40 40 40 40 41 41
36 37 37 37 38 38 38 38 37 37 38 39 39 39 39 39 39 39 42 41 40 40 42 42 43 43 42 42 43 43 43 43 43
Wind_Direction
272 264 253 243 209 212 210 205 207 211 217 219 221 231 219 209 214 224 221 202 209 199 204 215 212 213 207 208 210 213 210 209 210
253 256 215 234 202 207 210 207 209 212 214 219 222 229 209 206 218 223 222 213 208 202 209 226 218 211 210 213 211 212 214 211 213
281 180 118 181 194 201 214 210 206 209 216 217 221 227 224 218 217 221 211 213 208 215 218 220 219 209 211 216 218 216 222 222 220
360 128 137 153 171 182 224 220 223 205 211 216 218 220 221 215 214 218 214 214 211 226 239 229 224 221 220 222 224 228 232 236 237
69 66 60 191 161 156 200 193 193 207 209 209 211 212 214 217 217 214 223 229 226 236 243 237 232 217 221 221 223 228 234 239 243
139 125 93 33 106 143 171 175 205 204 202 205 205 211 213 216 217 221 227 236 239 246 265 263 227 227 222 220 225 232 239 242 243
197 177 158 165 98 124 120 158 174 218 206 207 210 207 209 217 223 222 229 239 246 251 252 251 233 233 242 232 230 234 231 241 250
234 228 213 189 189 172 190 200 209 224 230 221 214 211 205 214 222 228 229 241 251 252 257 256 259 275 281 263 233 237 236 244 254
226 228 229 223 219 207 196 216 243 264 236 215 215 211 205 215 223 229 233 236 244 252 259 264 268 262 261 261 263 259 257 255 253
233 233 227 221 212 219 221 230 253 298 269 203 210 212 218 228 240 250 251 247 249 249 254 254 256 261 259 257 252 252 258 259 256
243 239 239 240 235 227 228 225 235 243 247 205 218 230 241 242 240 249 257 254 250 250 250 249 243 251 254 254 253 250 249 252 251
253 251 249 251 255 258 259 254 244 234 222 214 227 239 239 241 242 243 246 249 248 246 247 250 247 250 250 248 248 246 248 248 246
251 250 250 252 253 256 259 261 259 256 251 239 232 236 240 246 249 250 249 248 248 249 248 250 251 251 253 253 252 253 251 248 248
254 255 257 257 257 257 257 258 259 259 258 256 253 251 249 247 249 252 254 253 252 252 253 254 256 255 255 256 256 253 252 254 253
255 256 256 257 257 258 259 259 258 257 255 254 255 256 258 260 260 260 260 260 261 260 259 259 259 259 259 259 261 261 259 255 255
256 256 257 258 259 261 263 263 261 260 260 259 257 253 253 257 259 261 261 262 263 263 263 263 262 263 264 265 266 264 263 263 260
254 255 256 256 257 258 260 261 263 261 260 260 261 262 259 256 255 256 257 258 260 263 265 266 267 266 265 266 265 265 264 265 264
257 258 259 259 259 259 259 259 261 263 262 261 261 261 262 261 261 260 260 261 262 262 262 263 264 265 264 264 266 267 268 268 267
260 261 262 263 263 263 263 263 262 263 265 263 263 263 262 263 265 263 261 261 262 262 262 263 263 263 263 263 263 264 265 266 267
261 263 265 266 266 267 268 267 267 266 266 268 268 266 265 265 265 267 272 268 264 265 264 263 263 263 264 264 265 264 263 262 263